IO-117
1 53106U 22080B 24340.33076919 -.00000003 00000-0 00000-0 0 9992
2 53106 70.1317 133.0636 0008362 68.7653 291.3899 6.42557789 56265
FO-118
1 54684U 22167C 24340.83737476 .00121739 00000-0 17641-2 0 9997
2 54684 97.6150 132.4642 0008250 260.6234 99.4087 15.55405065110710
SSS-2B
1 56184U 23054G 24340.79526797 .00469275 83564-4 17044-2 0 9994
2 56184 97.3367 243.6966 0005231 110.2032 249.9803 15.88481409 92810
SO-120
1 56992U 23084BU 24340.15298950 .00171047 00000-0 22996-2 0 9990
2 56992 97.5376 104.2551 0004203 151.8586 208.2896 15.57294023 82475
MRC-100
1 56993U 23084BV 24340.58403814 .00339601 00000-0 24696-2 0 9996
2 56993 97.5326 106.4745 0001613 245.4798 114.6297 15.72347515 82665
UmKA 1 (RS40S)
1 57172U 23091G 24340.84014976 .00011593 00000-0 68482-3 0 9999
2 57172 97.5876 31.3635 0014359 253.3866 106.5788 15.11575910 79389
CubeBel-2 (EU11S)
1 57175U 23091K 24340.84362268 .00015854 00000-0 88196-3 0 9990
2 57175 97.5877 31.6541 0012493 265.0917 94.8888 15.13683247 79404
VERONIKA
1 58261U 23174F 24340.80392872 .00050275 00000-0 14317-2 0 9998
2 58261 97.4410 55.3443 0008906 357.4138 2.7058 15.35901952 59902
KAFASAT
1 58317U 23174BP 24340.47304099 .00097702 00000-0 20078-2 0 9994
2 58317 97.4337 56.8666 0007501 324.7020 35.3732 15.45603007 59993
ENSO
1 58470U 23185J 24340.81135714 .00041083 00000-0 11903-2 0 9998
2 58470 97.4032 46.7772 0010288 34.6934 325.4979 15.35396021 56355
EIRSAT-1
1 58472U 23185L 24340.84264692 .00044397 00000-0 11931-2 0 9993
2 58472 97.4023 47.1567 0009467 33.6275 326.5569 15.37732755 56388
SONATE-2
1 59112U 24043Q 24340.31157138 .00025400 00000-0 97349-3 0 9999
2 59112 97.4955 103.3455 0013516 56.5755 303.6774 15.26418340 41839
MO-122
1 60209U 24125G 24340.55254126 .00024525 00000-0 93277-3 0 9993
2 60209 97.2981 189.2358 0024781 80.6367 279.7673 15.26470981 23484
GRBBeta
1 60237U 24128C 24340.43929120 .00008467 00000-0 69260-3 0 9999
2 60237 61.9943 7.1668 0029987 10.5208 349.6502 14.99654657 22257
Curium One
1 60242U 24128H 24340.40338073 .00013666 00000-0 10908-2 0 9994
2 60242 61.9847 7.3725 0030293 2.1362 357.9851 15.00208726 22256
ROBUSTA-3A
1 60243U 24128J 24340.49331616 .00014433 00000-0 11607-2 0 9990
2 60243 61.9914 7.3669 0028353 359.7158 0.3911 14.99930607 22261
CatSat
1 60246U 24125J 24340.14155814 .00021406 00000-0 84594-3 0 9990
2 60246 97.2786 189.6273 0049456 37.4482 323.0184 15.24356723 21520
CosmoGirlSat
1 60953U 98067WT 24340.77831721 .02085165 43552-2 18439-2 0 9997
2 60953 51.6096 171.6830 0010824 263.5710 96.4073 16.13206240 15445
CySat-1
1 61501U 98067WZ 24340.78839029 .00275216 00000-0 19163-2 0 9997
2 61501 51.6293 180.8855 0013003 243.6881 116.2782 15.72885694 9152
AO-123
1 99130U 20499A 24340.52702546 -.00177143 00000-0 -73756-2 0 00008
2 99130 097.3779 204.8410 0018571 130.8028 286.0454 15.23674837000015
